Temp_Advection
nan nan nan nan nan nan nan nan nan nan nan nan nan nan nan nan nan nan nan nan nan nan nan nan nan nan nan nan nan nan nan nan nan nan nan nan nan nan nan nan nan nan nan
nan 0 0 0 0 0 0 0 0 0 0 -0 -0 0 0 -0 -0 0 0 0 0 0 -0 0 0 -0 0 0 0 -0 -0 -0 -0 -0 -0 -0 0 0 -0 -0 -0 0 nan
nan 0 -0 0 0 0 0 -0 0 0 0 0 -0 -0 0 0 0 0 0 0 -0 0 -0 -0 0 0 0 0 0 0 -0 -0 -0 0 0 0 -0 -0 -0 -0 -0 -0 nan
nan -0 -0 0 0 0 0 -0 0 0 0 0 0 0 0 0 0 0 0 0 -0 -0 -0 0 0 0 -0 0 -0 -0 -0 -0 -0 0 -0 0 -0 -0 -0 0 -0 -0 nan
nan -0 -0 0 0 0 0 0 -0 0 0 0 0 0 0 -0 0 0 0 0 -0 -0 0 0 -0 -0 -0 -0 -0 -0 -0 -0 -0 0 0 -0 -0 -0 -0 -0 -0 0 nan
nan 0 -0 0 0 0 0 0 0 0 0 0 0 0 0 0 0 0 0 -0 0 -0 0 -0 -0 -0 -0 -0 -0 -0 -0 -0 0 0 0 0 0 0 -0 -0 -0 -0 nan
nan -0 -0 0 0 0 0 0 0 0 0 0 0 -0 0 0 0 0 0 -0 -0 -0 -0 -0 -0 -0 0 0 -0 -0 -0 0 0 0 0 -0 -0 -0 0 -0 -0 -0 nan
nan 0 0 -0 0 0 0 0 0 0 0 0 -0 -0 0 0 -0 -0 -0 -0 -0 -0 0 0 0 0 0 0 -0 -0 -0 0 0 0 0 0 0 -0 -0 -0 -0 -0 nan
nan 0 -0 0 0 0 0 0 0 0 0 0 -0 0 0 0 -0 -0 -0 0 0 0 0 0 0 0 0 0 -0 0 0 0 0 0 0 0 0 0 -0 -0 -0 -0 nan
nan -0 0 0 0 0 0 0 0 0 1 -0 0 0 0 -0 -0 -0 0 0 0 0 0 0 0 0 0 -0 0 0 0 0 0 -0 -0 -0 -0 -0 -0 -0 -0 0 nan
nan 0 0 0 0 0 0 0 0 0 0 -0 0 0 0 -0 -0 0 0 0 0 0 0 0 0 0 0 0 -0 0 0 0 0 -0 0 -0 0 0 -0 0 -0 -0 nan
nan 0 0 0 1 0 0 0 0 0 -0 -0 0 0 -0 -0 -0 0 0 0 0 0 0 0 0 0 0 0 0 0 0 0 0 0 0 0 0 0 0 0 -0 -0 nan
nan -0 -0 0 -0 0 0 0 0 -0 -0 0 0 0 -0 -0 0 0 0 0 0 0 0 0 0 0 0 0 0 0 0 0 0 1 0 0 0 0 0 0 -0 -0 nan
nan -0 -0 -0 0 -0 0 0 -0 -0 -0 0 0 -0 -0 -0 0 1 0 0 0 0 0 0 0 0 0 0 0 0 0 0 -0 0 0 0 0 0 0 -0 -0 -0 nan
nan -0 -0 -0 -0 0 1 0 -0 0 0 1 1 -0 -0 0 1 0 0 0 0 0 0 0 0 -0 0 0 0 0 0 0 -0 -0 0 0 0 0 -0 -0 -0 -0 nan
nan -0 -0 0 -0 -0 0 0 0 1 1 1 1 1 -0 0 0 0 0 0 0 0 0 0 0 0 -0 0 0 0 0 0 0 -0 0 0 0 -0 -0 0 -0 -0 nan
nan 0 0 -0 -0 -0 -0 0 1 0 1 2 2 0 0 1 0 0 0 0 0 0 0 0 0 0 0 -0 0 0 0 0 0 0 0 -0 0 0 0 0 -0 -0 nan
nan 0 0 0 -0 -0 0 0 1 1 1 1 1 1 0 1 1 1 0 0 0 0 0 -0 -0 -0 -0 -0 0 0 0 0 0 0 0 0 0 0 0 -0 -0 -0 nan
nan 0 0 0 0 0 0 0 1 0 -0 1 1 0 0 0 1 1 0 0 0 0 0 0 -0 0 0 0 0 0 0 0 0 0 0 0 0 0 -0 -0 -0 -0 nan
nan 1 0 0 0 0 0 1 1 0 1 2 1 -1 -0 0 0 1 0 0 0 0 -0 0 0 0 0 0 -0 0 0 0 0 0 0 0 0 0 -0 -0 -0 -0 nan
nan 0 0 0 0 1 1 1 0 0 1 1 -0 -1 -0 1 0 0 0 0 0 0 0 0 0 -0 -0 -0 -0 -0 -0 0 0 0 0 0 0 0 -0 -0 -0 -0 nan
nan -0 0 0 0 0 0 0 0 1 1 1 1 0 1 0 -0 -0 0 0 0 0 -0 -0 -0 -0 -0 -0 -0 -1 -0 -0 -0 -0 -0 0 0 0 -0 -0 -0 -0 nan
nan -0 -0 0 0 0 0 1 1 1 1 1 0 1 2 -1 0 -0 -0 0 0 -0 -0 -0 -0 -0 -0 -1 -0 -0 -0 -0 -0 0 0 0 0 -0 -0 -0 -0 -0 nan
nan 0 0 -0 0 0 1 1 1 1 1 0 -0 1 -0 1 1 0 -0 0 0 0 0 0 0 0 0 -0 -0 -0 -0 -0 -0 -0 0 0 0 0 0 -0 -0 -0 nan
nan 0 -1 -1 0 1 1 1 1 1 0 0 1 1 1 3 -0 1 -0 -0 0 0 0 0 0 0 0 0 -0 0 0 0 -0 -1 -0 -0 -0 0 0 0 -0 -0 nan
nan nan nan nan nan nan nan nan nan nan nan nan nan nan nan nan nan nan nan nan nan nan nan nan nan nan nan nan nan nan nan nan nan nan nan nan nan nan nan nan nan nan nan
Wind_Speed
9 8 13 15 17 17 16 16 15 15 15 14 13 12 12 11 10 10 9 7 6 6 5 7 8 8 7 8 8 8 8 8 9 10 11 10 10 8 9 8 9 8 7
7 9 11 17 17 17 17 16 16 15 14 15 12 10 10 10 8 8 8 9 10 7 6 7 6 4 4 5 5 6 8 9 11 12 12 8 8 6 5 6 7 8 7
7 9 11 19 17 17 17 16 15 15 13 14 13 11 10 9 10 8 8 7 6 6 6 4 3 4 3 5 6 6 8 10 11 11 8 6 5 6 6 7 5 6 8
7 11 9 20 18 17 17 16 15 14 13 13 12 11 10 11 9 6 6 7 7 7 7 5 5 4 2 1 2 3 7 13 10 6 7 7 6 4 5 5 4 4 4
8 15 8 18 19 18 17 17 16 14 12 12 12 12 13 12 7 6 7 7 7 8 7 6 5 4 4 3 2 4 9 16 11 9 8 4 3 3 4 5 5 4 4
7 14 11 11 18 17 17 16 16 15 14 12 14 15 13 10 7 7 8 9 9 8 7 7 6 5 4 3 3 7 14 17 12 9 6 4 4 5 2 4 5 4 4
5 17 14 10 18 17 16 16 16 16 14 16 17 15 13 10 8 8 8 8 8 7 7 7 6 4 3 4 6 11 18 14 11 10 6 3 2 1 3 5 7 8 7
8 12 17 14 13 16 16 16 17 17 17 19 18 15 13 10 9 9 8 8 8 8 7 6 5 5 5 7 10 16 18 14 13 10 6 3 3 2 4 10 10 13 14
14 13 15 18 17 17 19 20 20 19 20 22 17 15 13 11 10 9 9 8 8 7 6 6 5 5 7 10 15 20 17 14 13 11 7 4 2 4 11 10 12 14 14
11 18 19 15 20 20 22 22 22 22 23 22 16 15 13 12 11 10 10 9 8 7 6 6 6 8 10 14 19 19 16 15 14 12 7 2 5 12 13 11 10 7 3
14 17 21 23 23 24 26 26 25 25 26 24 17 16 15 13 13 12 10 9 8 7 7 8 9 11 13 16 20 18 14 11 11 9 6 8 12 15 14 9 4 3 2
20 15 18 24 26 24 28 29 29 27 29 24 20 18 17 16 14 12 11 10 9 9 9 10 11 13 15 17 17 14 11 8 7 11 12 15 17 14 7 4 1 5 7
21 24 20 17 22 28 27 30 32 32 31 28 22 20 20 18 14 12 11 11 11 12 12 13 15 15 15 16 14 12 10 8 13 16 19 15 10 6 2 3 4 7 8
26 25 26 23 21 24 29 30 33 35 33 31 27 24 23 20 15 13 12 12 13 14 15 16 15 13 13 10 11 12 12 9 15 15 15 10 7 4 2 1 5 5 6
27 28 27 26 24 23 25 30 36 40 37 33 30 27 25 21 16 15 14 14 15 16 16 15 15 14 14 13 11 11 12 11 13 17 14 12 8 6 6 5 3 4 5
25 29 30 30 26 26 26 26 38 40 38 37 33 30 26 22 19 19 17 17 17 16 16 14 13 16 16 15 13 11 12 11 10 12 15 17 14 8 5 2 2 3 4
25 25 26 25 27 26 26 24 30 24 35 37 28 27 26 24 21 20 18 19 19 19 20 20 17 16 14 14 12 10 11 9 8 8 8 9 7 4 2 1 1 2 3
31 28 26 26 27 24 29 24 23 33 26 24 31 27 25 23 22 23 22 21 22 23 21 21 19 17 15 13 13 12 10 10 7 6 6 6 4 3 2 2 2 2 3
31 30 28 25 25 28 27 24 20 21 34 35 29 24 23 20 22 23 23 22 24 24 22 20 19 18 18 15 13 12 12 10 7 4 2 1 2 3 3 2 2 2 3
25 27 28 27 27 26 26 23 19 22 31 35 35 27 23 19 22 23 23 23 25 24 22 22 21 19 17 16 14 13 10 9 6 5 3 4 3 2 2 3 3 4 5
16 23 25 27 30 24 27 24 21 24 32 36 33 30 25 21 22 23 24 25 26 24 22 21 21 19 20 19 18 16 14 10 7 5 3 4 3 4 3 3 3 4 5
15 20 25 29 30 28 23 21 23 25 31 31 32 31 35 25 23 21 24 26 25 26 24 23 22 22 21 21 18 18 12 11 8 6 5 3 4 2 1 2 4 6 7
13 16 27 32 32 31 25 25 27 27 34 38 34 33 28 31 20 22 23 24 25 24 22 22 22 20 23 23 21 9 9 7 14 9 8 6 4 1 3 5 7 9 10
42 43 32 37 36 34 27 29 31 33 40 42 41 39 34 26 28 26 25 25 23 22 21 21 20 19 19 21 22 13 9 16 8 10 11 9 4 1 2 7 11 8 9
42 32 36 41 40 35 30 30 31 30 39 42 38 34 35 31 32 27 27 24 23 22 21 20 19 18 17 16 18 15 13 16 12 14 16 12 5 2 4 7 6 6 9
34 29 27 41 42 37 32 31 33 37 40 43 39 37 36 32 26 24 23 23 23 23 22 20 18 17 17 16 15 14 13 14 13 10 12 10 5 4 1 5 6 9 11
Wind_Direction
194 203 202 185 175 169 165 161 158 155 153 149 147 143 143 134 133 132 132 136 137 130 108 87 88 98 105 111 113 113 111 107 98 84 78 76 71 62 65 50 55 63 66
256 233 225 194 181 175 170 165 162 161 159 152 143 148 147 147 145 141 141 138 134 124 106 95 105 114 114 124 118 112 110 107 95 83 82 56 63 48 69 65 63 63 66
200 230 222 197 187 182 177 171 168 166 163 155 160 156 157 154 148 145 149 152 153 140 142 137 147 137 123 111 111 107 111 111 106 95 98 95 67 53 64 68 50 61 68
205 225 236 201 191 187 183 177 173 171 163 160 161 162 162 159 157 166 179 187 187 188 203 212 191 197 217 148 134 128 123 126 117 109 120 122 74 37 35 56 42 23 26
293 223 249 213 198 192 190 182 179 174 170 167 166 166 165 173 182 185 189 189 211 228 217 210 213 232 255 259 207 155 136 137 120 118 115 127 99 10 6 25 35 19 11
267 215 241 248 207 200 195 190 184 182 180 174 182 183 189 203 225 224 222 225 228 228 221 221 232 242 244 226 165 141 135 133 139 139 147 218 235 298 13 40 24 26 36
204 224 255 265 215 206 205 197 191 191 189 187 189 198 206 223 238 239 231 226 230 230 223 220 222 220 198 156 137 134 137 139 130 135 137 125 320 346 12 33 54 57 69
222 227 236 243 235 219 210 208 202 196 197 197 199 206 224 236 241 247 237 224 220 220 217 212 202 187 161 141 133 135 140 149 137 146 157 165 265 325 44 78 74 71 80
234 216 226 230 224 230 226 210 209 204 203 197 205 217 230 239 244 244 237 220 213 210 208 205 189 164 146 137 136 140 142 162 166 165 169 194 339 74 108 105 102 93 93
241 226 234 233 232 228 230 220 212 207 203 212 212 221 230 236 243 231 224 219 212 209 204 193 169 153 143 140 142 143 156 166 176 177 180 213 120 116 124 120 117 101 104
273 235 236 243 240 239 234 227 217 214 211 221 217 222 229 235 237 233 218 218 213 204 193 180 164 150 143 144 149 155 170 172 178 187 152 138 140 131 128 119 140 74 349
282 256 244 247 244 239 236 226 224 218 218 229 225 225 229 232 231 226 214 208 201 195 183 168 159 152 145 147 159 164 177 182 159 131 134 130 133 138 160 159 355 0 350
281 275 262 263 253 241 235 229 228 222 219 227 228 225 230 230 224 212 208 204 189 180 173 163 154 154 150 155 164 166 189 178 139 137 141 144 153 175 254 97 7 348 349
270 277 272 263 267 251 245 241 230 228 223 224 227 223 231 230 222 209 205 195 182 173 165 163 163 159 160 160 182 181 189 166 154 150 164 168 169 170 196 333 343 345 350
267 265 269 265 268 261 251 245 237 224 225 229 223 221 226 227 223 215 201 192 178 170 165 169 172 171 181 184 187 174 183 187 167 175 181 189 201 208 278 317 337 347 353
272 265 264 260 261 263 260 245 218 223 225 228 218 215 217 223 219 209 200 190 183 178 172 179 183 179 182 192 193 184 180 192 185 183 199 210 225 247 264 282 321 338 346
271 273 265 264 259 262 264 262 241 234 220 212 209 212 218 217 215 212 205 199 185 185 183 187 187 186 188 184 193 184 177 185 189 176 171 181 200 198 206 250 326 345 6
269 271 266 261 254 259 256 257 249 241 217 206 206 215 221 215 211 208 207 200 191 191 192 192 196 190 191 185 185 180 167 160 164 166 163 151 153 148 141 106 78 38 14
267 262 255 253 259 251 249 248 240 237 235 220 216 204 213 220 212 208 206 198 195 194 192 196 191 190 181 173 163 158 162 169 174 193 168 153 134 125 110 75 45 31 2
269 260 253 255 250 253 241 235 226 227 221 227 211 193 205 220 216 210 204 198 197 197 190 188 188 180 177 174 166 160 154 156 173 177 158 150 132 103 75 60 22 349 338
280 263 256 248 246 243 237 222 214 215 217 201 208 217 219 217 219 213 208 200 198 201 195 192 188 181 174 175 168 164 165 171 179 186 194 138 91 95 91 27 351 354 337
284 275 259 247 248 243 235 239 227 221 213 203 205 210 220 199 230 219 210 203 198 198 194 192 191 180 177 174 166 153 147 158 182 176 176 145 126 125 79 4 334 334 326
296 285 264 250 243 243 238 225 211 208 205 190 191 199 200 203 225 228 214 205 198 197 194 188 183 185 179 172 172 158 158 169 155 153 157 141 145 42 352 321 320 325 325
294 282 269 254 242 237 235 221 217 206 206 200 200 198 199 209 215 229 215 203 196 189 190 185 181 179 185 184 181 197 193 171 163 157 157 148 153 177 303 323 318 322 324
302 280 263 239 233 230 230 223 214 211 207 200 202 196 190 183 189 212 208 200 191 184 185 185 178 175 173 183 186 185 168 167 171 160 161 166 191 223 305 323 322 318 314
289 283 259 227 220 222 219 216 220 216 207 202 194 190 178 180 172 202 202 195 187 179 179 176 170 170 172 172 166 163 156 158 156 159 157 168 180 174 294 326 279 300 309
Height
1514 1515 1516 1518 1519 1520 1522 1524 1525 1527 1528 1530 1532 1533 1534 1535 1537 1537 1538 1539 1540 1540 1541 1541 1541 1542 1542 1543 1543 1544 1545 1545 1546 1547 1547 1547 1547 1547 1547 1547 1546 1546 1546
1514 1515 1515 1517 1518 1520 1522 1524 1525 1527 1528 1530 1532 1533 1535 1535 1536 1537 1538 1539 1540 1541 1541 1542 1542 1543 1543 1543 1543 1544 1545 1545 1546 1547 1548 1548 1548 1548 1548 1548 1547 1547 1546
1513 1514 1514 1516 1518 1520 1522 1524 1525 1527 1528 1530 1531 1533 1535 1536 1536 1537 1538 1539 1540 1541 1541 1542 1542 1543 1543 1543 1543 1544 1545 1545 1546 1547 1547 1549 1549 1549 1549 1548 1548 1547 1547
1512 1514 1514 1515 1516 1519 1521 1523 1525 1527 1528 1530 1531 1532 1534 1535 1536 1537 1538 1538 1539 1540 1540 1541 1542 1542 1542 1543 1543 1544 1545 1546 1546 1546 1547 1547 1548 1548 1548 1548 1548 1547 1547
1511 1513 1515 1516 1516 1517 1519 1521 1524 1526 1528 1530 1531 1532 1533 1534 1535 1536 1537 1537 1538 1539 1539 1539 1540 1541 1541 1542 1542 1543 1544 1545 1546 1546 1547 1547 1548 1548 1548 1547 1547 1547 1546
1510 1512 1515 1517 1517 1518 1519 1520 1522 1524 1526 1528 1530 1531 1531 1533 1534 1535 1536 1536 1537 1537 1537 1538 1539 1539 1540 1541 1541 1542 1544 1545 1545 1546 1547 1547 1547 1547 1547 1547 1546 1546 1546
1514 1514 1515 1516 1516 1518 1519 1520 1521 1522 1525 1527 1528 1530 1531 1532 1533 1534 1534 1534 1535 1535 1536 1536 1537 1537 1538 1539 1540 1542 1544 1545 1545 1546 1547 1547 1546 1546 1547 1546 1546 1546 1546
1513 1513 1514 1515 1516 1516 1518 1520 1520 1521 1523 1525 1526 1528 1529 1530 1531 1532 1532 1533 1533 1534 1535 1535 1536 1537 1537 1539 1540 1542 1544 1544 1544 1546 1547 1547 1546 1546 1546 1547 1547 1547 1547
1512 1512 1512 1513 1513 1515 1516 1517 1519 1520 1522 1522 1524 1526 1527 1528 1529 1529 1530 1531 1532 1533 1533 1534 1535 1536 1537 1538 1540 1542 1543 1543 1544 1545 1546 1546 1546 1546 1546 1547 1549 1548 1548
1510 1510 1511 1511 1512 1513 1514 1515 1516 1518 1519 1520 1521 1523 1525 1526 1527 1527 1528 1530 1530 1531 1532 1533 1534 1535 1537 1538 1540 1542 1542 1543 1544 1545 1545 1546 1546 1547 1547 1548 1548 1549 1550
1508 1508 1509 1508 1508 1510 1511 1512 1513 1515 1517 1518 1520 1521 1522 1523 1524 1525 1526 1528 1529 1530 1531 1532 1534 1535 1536 1538 1540 1540 1541 1542 1544 1545 1545 1545 1546 1547 1548 1548 1549 1549 1549
1503 1504 1505 1505 1505 1505 1507 1509 1510 1512 1514 1516 1517 1518 1520 1520 1521 1523 1524 1525 1527 1529 1530 1532 1533 1535 1536 1538 1539 1539 1540 1541 1543 1544 1546 1547 1547 1547 1548 1548 1549 1549 1548
1500 1500 1501 1500 1501 1501 1502 1504 1506 1508 1510 1512 1514 1515 1516 1518 1519 1521 1522 1523 1525 1527 1528 1531 1532 1534 1535 1537 1538 1539 1539 1541 1543 1545 1546 1547 1548 1549 1549 1549 1549 1548 1548
1496 1495 1496 1496 1497 1497 1497 1498 1501 1503 1506 1508 1511 1511 1512 1515 1517 1519 1520 1523 1524 1525 1527 1529 1531 1533 1534 1535 1537 1538 1538 1540 1542 1544 1546 1548 1549 1549 1548 1548 1549 1549 1548
1489 1490 1491 1491 1492 1492 1492 1493 1495 1496 1500 1504 1506 1507 1508 1511 1514 1517 1519 1521 1523 1524 1526 1528 1530 1533 1535 1536 1536 1538 1538 1539 1542 1543 1545 1547 1548 1548 1548 1548 1548 1548 1548
1483 1484 1485 1486 1486 1487 1488 1491 1476 1489 1496 1498 1502 1503 1505 1507 1510 1514 1517 1519 1521 1523 1524 1527 1529 1531 1534 1535 1536 1537 1538 1539 1541 1542 1543 1545 1546 1547 1547 1547 1547 1547 1547
1477 1478 1479 1480 1481 1482 1484 1484 1486 1483 1487 1491 1497 1503 1503 1504 1507 1510 1513 1517 1519 1521 1523 1525 1527 1529 1532 1534 1536 1537 1538 1539 1540 1541 1542 1543 1544 1545 1546 1546 1546 1546 1546
1471 1472 1473 1474 1475 1476 1477 1480 1482 1486 1486 1482 1495 1501 1502 1503 1504 1508 1512 1515 1517 1519 1521 1524 1526 1528 1530 1533 1535 1537 1538 1539 1540 1541 1542 1543 1544 1545 1545 1545 1545 1546 1545
1463 1465 1466 1467 1469 1470 1472 1475 1478 1482 1485 1485 1488 1491 1503 1503 1504 1506 1510 1513 1515 1516 1518 1521 1524 1526 1528 1531 1534 1536 1539 1540 1541 1542 1542 1543 1543 1544 1545 1545 1545 1545 1545
1457 1458 1460 1460 1462 1464 1468 1471 1474 1478 1481 1485 1488 1489 1496 1501 1503 1506 1509 1512 1514 1515 1516 1518 1521 1524 1527 1529 1533 1535 1539 1541 1542 1543 1543 1544 1544 1544 1544 1545 1545 1544 1543
1453 1454 1454 1454 1454 1457 1461 1464 1469 1473 1480 1482 1485 1483 1491 1499 1503 1504 1508 1509 1511 1515 1515 1516 1519 1522 1525 1528 1531 1535 1537 1541 1542 1542 1543 1543 1544 1544 1543 1544 1543 1543 1542
1448 1449 1449 1448 1448 1449 1455 1460 1464 1467 1472 1476 1481 1479 1481 1495 1500 1503 1506 1508 1509 1512 1513 1515 1517 1518 1521 1526 1529 1533 1536 1541 1542 1542 1542 1543 1544 1544 1543 1542 1542 1541 1540
1442 1442 1443 1441 1442 1445 1450 1453 1458 1463 1466 1471 1474 1477 1477 1485 1498 1503 1506 1508 1509 1510 1512 1514 1515 1516 1518 1523 1526 1529 1533 1534 1539 1541 1541 1543 1543 1543 1543 1543 1541 1539 1539
1432 1433 1435 1434 1435 1438 1443 1446 1450 1455 1461 1464 1470 1473 1478 1477 1493 1503 1505 1508 1508 1507 1511 1513 1514 1514 1518 1520 1524 1527 1527 1528 1532 1539 1540 1541 1541 1540 1542 1543 1542 1538 1536
1416 1415 1415 1419 1424 1430 1435 1440 1445 1450 1456 1460 1466 1472 1472 1481 1488 1500 1506 1505 1505 1506 1509 1512 1512 1513 1517 1520 1522 1524 1526 1527 1530 1532 1536 1538 1540 1539 1540 1541 1540 1538 1535
1404 1402 1402 1406 1412 1420 1427 1434 1438 1443 1449 1454 1461 1468 1470 1482 1481 1497 1500 1503 1504 1504 1507 1509 1510 1512 1516 1518 1521 1523 1525 1527 1529 1531 1534 1536 1539 1539 1538 1537 1539 1537 1533